Regional Weather Roundup
Issued by NWS Kansas City/Pleasant Hill, MO

Home | Current Version | Previous Version | Text Only | Print | Product List | Glossary On
Versions: 1 2 3 4 5 6 7 8 9 10 11 12 13 14 15 16 17 18 19 20 21 22 23 24 25 26 27 28 29 30 31 32 33 34 35 36 37 38 39 40 41 42 43 44 45 46 47 48 49 50
000
ASUS43 KEAX 171611
RWREAX

WEATHER ROUNDUP FOR EASTERN KANSAS AND NORTHWEST MISSOURI
NATIONAL WEATHER SERVICE KANSAS CITY/PLEASANT HILL MO
1100 AM CDT WED SEP 17 2014

KSZ040-057-103>105-MOZ028-029-037-043-171700-
...KANSAS CITY METROPOLITAN AREA...

CITY           SKY/WX    TMP DP  RH WIND       PRES   REMARKS
K.C. INTL      CLOUDY    67  65  93 SE5       29.94S
K.C. DOWNTOWN  CLOUDY    67  64  90 E7        29.93S FOG
LEES SUMMIT    CLOUDY    66  64  93 E6        29.95S FOG
OLATHE - IXD   CLOUDY    69  67  93 CALM      29.94S FOG
OLATHE - OJC   CLOUDY    67  67 100 CALM      29.94S FOG
LAWRENCE       CLOUDY    69  66  90 CALM      29.93S FOG

$$

MOZ001>008-011>017-020>025-030>033-038>040-044>046-053-054-171700-
...NORTHERN AND CENTRAL MISSOURI...

CITY           SKY/WX    TMP DP  RH WIND       PRES   REMARKS
ST. JOSEPH     CLOUDY    65  62  90 SE3       29.95S
MOSBY          CLOUDY    63  63 100 SE3       29.94F FOG
WHITEMAN AFB   DRIZZLE   66  64  94 CALM      29.95R
CLINTON        CLOUDY    66  66 100 CALM      29.95S
SEDALIA        HVY RAIN  66  63  90 CALM      29.97R VSB 1
WARSAW         NOT AVBL
MARSHALL       CLOUDY    64  64 100 E6        29.98R FOG
CHILLICOTHE      N/A     66  61  84 VRB6      29.97S
MOBERLY        CLOUDY    66  57  72 E6        29.99R
KIRKSVILLE     CLOUDY    62  58  86 SE8       29.99F

$$

MOZ041-047>049-056>058-063>065-088>090-097-171700-
...EASTERN AND SOUTHERN MISSOURI...

CITY           SKY/WX    TMP DP  RH WIND       PRES   REMARKS
ST. LOUIS INTL LGT RAIN  61  52  72 SE12      30.03F
SPIRIT OF STL  CLOUDY    58  54  86 VRB3      30.02R
COLUMBIA         N/A     60  59  96 MISG      29.98R
JEFFERSON CITY CLOUDY    64  61  90 E3        29.97R
MEXICO         CLOUDY    64  64 100 SE6       29.99S
HANNIBAL       CLOUDY    63  55  77 E3        30.01F
ROLLA          CLOUDY    60  58  92 SE10      29.97F
LEBANON        TSTM      64  63  94 S10       29.98F
OSAGE BEACH    CLOUDY    64  63  94 W3        29.97R
SPRINGFIELD    LGT RAIN  67  65  93 S10       29.96F
BRANSON        CLOUDY    66  64  94 SE6       30.03F
NEVADA         CLOUDY    68  66  94 E7        29.95R
JOPLIN         SUNNY     80  71  74 SW18G26   29.93F
WEST PLAINS    RAIN      60  58  92 VRB5      30.07F FOG

$$

IAZ060-094-KSZ022-034>040-054-083-096-NEZ052-066-093-171700-
...KANSAS...SOUTHEAST NEBRASKA AND IOWA...

CITY           SKY/WX    TMP DP  RH WIND       PRES   REMARKS
TOPEKA         CLOUDY    69  68  96 E3        29.93S FOG
MANHATTAN      CLOUDY    72  67  84 NE7       29.92S
EMPORIA        MOSUNNY   75  69  81 NE6       29.92R
CHANUTE        SUNNY     81  70  69 SW15      29.91F
WICHITA        MOSUNNY   82  66  58 SW8       29.91S
OMAHA          MOSUNNY   68  58  70 SE3       29.94R
LINCOLN        PTSUNNY   65  60  84 VRB3      29.95S
FALLS CITY     CLOUDY    65  63  93 E3        29.94S FOG
LAMONI         PTSUNNY   67  60  78 SE8       29.96S
DES MOINES     MOSUNNY   67  57  70 SE3       29.97S

$$



USA.gov is the U.S. government's official web portal to all federal, state and local government web resources and services.